Location: Piotrkow Trybunalski
(51.4000°N, 19.6830°E)
Time: 08:27:17
(UTC+01:00)

BlueWalker 3 - Pass Details

Date: 09 December 2022
Orbit: 499 x 517 km, 53.2° (Epoch: 29 January)

Event Time Altitude Azimuth Distance (km) Brightness Sun altitude
Rises 16:27:11 0° 287° (WNW) 2,636 6.4 -8.0°
Reaches altitude 10° 16:29:23 10° 287° (WNW) 1,744 5.4 -8.3°
Maximum altitude 16:33:21 87° 200° (SSW) 518 2.0 -8.9°
Drops below altitude 10° 16:37:16 10° 110° (ESE) 1,726 4.2 -9.4°
Enters shadow 16:38:21 - 110° (ESE) 2,163 4.7 -9.6°
